Showing default

EZIE-C, 63249

Orbit data source: Space-Track

EZIE-C, 63249 is an American payload satellite in SSO that was launched on Sat, 15 Mar 2025 UTC via an FALCON 9 launch vehicle from the Air Force Western Test Range (AFWTR). Payload-class satellites include a variety of spacecraft equipped with specific instruments for various scientific and technological missions. These include communications satellites like Starlink; space stations such as the ISS; scientific satellites like the Hubble; Earth observation satellites from companies like Planet Labs, Umbra, and HawkEye 360; GPS; miniature CubeSats for education and research; and military/defense satellites.

Loading next visibility...
Identifier
63249, 2025-052AR
Orbit
SSO
Country
Flag of USUS
Related business
Manufacturer
APL
Mission
Operational Civil Science
Bus & Motor
CUBESAT 6U, Unknown motor
Mass
~10 kg wet, ~10 kg dry
Launch date (UTC)
2025-03-15 (1 year ago)
Launch vehicle
FALCON 9
Launch site
Air Force Western Test Range (AFWTR)
Object type
Payload
Rocket body
Debris
Shape & HBR
Box, 0.4 m
Radar Cross Section
0.035 m², Medium (>0.1 m² and < 1m²)

Expand to show TLE details & history
Last TLE update: 1 day ago

TLE from 1 day ago
0 EZIE-C
1 63249U 25052AR  26248.62206616  .00001856  00000-0  16297-3 0  9997
2 63249  97.6747 139.3475 0002429 326.7727  33.3342 14.97794091 80703
Epoch: 2026-09-05T14:55Z
TLE epoch observation values (Epoch: 2026-09-05T14:55:46.516Z)
Latitude
-0.00005°
Longitude
-69.32521°
Altitude
575.355 km
Speed
7.574 km/s
True Right ascension
09h 17m 23s
True Declination
0° 00' 00"
Sunlit
Object was in daylight at epoch
Visualization orbit readout
Latitude
Unknown
Longitude
Unknown
Altitude
Unknown
Speed
Unknown
Apparent Right ascension
Unknown
Apparent Declination
Unknown
Sunlit
N/A
Visualization observer readout
Local Sidereal Time
13:47:23
Azimuth
Unknown
Elevation
Unknown
Doppler factor
Unknown
Orbital elements
Apogee altitude
572.409 km
Perigee altitude
569.033 km
Semi-major axis
6,948.858 km
Eccentricity
0.00024
Inclination
97.6747°
RAAN
139.3475°
Arg. of periapsis
326.7727°
True anomaly
33.3495°
Mean anomaly
33.3342°
Eccentric anomaly
33.34185°
Mean motion
3.74691 °/min
Orbital period
96.08 mins
BSTAR
0.00016297
Loading maneuver chart data...
Computing Atmospheric mass density...
Loading historical data...
Loading historical data...
Loading historical data...
Loading historical data...
Loading historical data...
Loading historical data...
Loading historical data...

Documentation

Showing up to 5 results
|